Manhattan, KS

10:21 AM CST on February 24, 2018 (GMT -0600)
Manhattan Regional

Weather History for KMHK - October, 2010

Change the Weather History Date:

Monday, October 11, 2010

  Actual Average Record
Temperature  
Mean Temperature 58 °F 57 °F  
Max Temperature 64 °F 70 °F 89 °F (2015)
Min Temperature 51 °F 44 °F 32 °F (2017)
Degree Days  
Heating Degree Days 8 9  
Month to date heating degree days 83  
Since 1 July heating degree days 153  
Cooling Degree Days 0 1  
Month to date cooling degree days 18  
Year to date cooling degree days 1355  
Growing Degree Days 8 (Base 50)    
Moisture  
Dew Point 55 °F    
Average Humidity 87    
Maximum Humidity 97    
Minimum Humidity 70    
Precipitation  
Precipitation 0.16 in 0.07 in 0.25 in (2005)
Month to date precipitation 0.88  
Year to date precipitation 28.59  
Sea Level Pressure  
Sea Level Pressure 29.86 in    
Wind  
Wind Speed 1 mph (ENE)    
Max Wind Speed 9 mph    
Max Gust Speed -    
Visibility 9 miles    
Events Rain , Thunderstorm    
T = Trace of Precipitation, MM = Missing Value Source: NWS Daily Summary

Daily Weather History Graph

Daily Weather History Graph

Search for Another Location

Airport or City:

Trip Planner

Search our weather history database for the weather conditions in past years. The results will help you decide how hot, cold, wet, or windy it might be!

Date:

Astronomy

Oct. 11, 2010 Rise Set
Actual Time 7:32 AM CDT 6:53 PM CDT
Civil Twilight 7:05 AM CDT 7:20 PM CDT
Nautical Twilight 6:34 AM CDT 7:51 PM CDT
Astronomical Twilight 6:03 AM CDT 8:22 PM CDT
Moon 12:07 PM CDT (10/11) 9:34 PM CDT (10/11)
Length of Visible Light 12h 15m
Length of Day
11h 21m
Waxing Crescent, 19% of the Moon is Illuminated
Oct 11
Waxing Crescent
Oct 14
First Quarter
Oct 22
Full
Oct 30
Last Quarter
Nov 5
New

Hourly Weather History & Observations

Time (CDT) Temp. Dew Point Humidity Pressure Visibility Wind Dir Wind Speed Gust Speed Precip Events Conditions
12:52 AM 55.0 °F 53.1 °F 93% 29.86 in 10.0 mi Calm Calm - N/A   Clear
1:52 AM 54.0 °F 52.0 °F 93% 29.86 in 10.0 mi Calm Calm - N/A   Partly Cloudy
2:52 AM 53.1 °F 52.0 °F 96% 29.85 in 10.0 mi Calm Calm - N/A   Scattered Clouds
3:52 AM 51.8 °F 50.0 °F 94% 29.86 in 8.0 mi Calm Calm - N/A   Partly Cloudy
4:52 AM 52.0 °F 51.1 °F 97% 29.85 in 10.0 mi Calm Calm - N/A   Overcast
5:52 AM 52.0 °F 51.1 °F 97% 29.86 in 9.0 mi Calm Calm - N/A   Overcast
6:52 AM 53.6 °F 51.8 °F 94% 29.88 in 10.0 mi South 3.5 mph - N/A   Overcast
7:52 AM 54.0 °F 53.1 °F 97% 29.87 in 4.0 mi Calm Calm - 0.10 in Rain Light Rain
8:52 AM 55.9 °F 55.0 °F 97% 29.86 in 7.0 mi Calm Calm - 0.00 in   Partly Cloudy
9:52 AM 61.0 °F 57.0 °F 87% 29.87 in 10.0 mi Calm Calm - N/A   Scattered Clouds
10:52 AM 62.1 °F 55.0 °F 78% 29.87 in 10.0 mi NE 4.6 mph - N/A   Overcast
11:52 AM 63.0 °F 57.0 °F 81% 29.88 in 10.0 mi Calm Calm - N/A   Overcast
12:52 PM 64.0 °F 55.0 °F 73% 29.86 in 10.0 mi East 9.2 mph - N/A   Overcast
1:03 PM 64.4 °F 55.4 °F 73% 29.86 in 10.0 mi ENE 6.9 mph - N/A   Overcast
1:52 PM 64.9 °F 55.0 °F 70% 29.84 in 10.0 mi ESE 3.5 mph - N/A   Mostly Cloudy
2:52 PM 64.9 °F 55.9 °F 73% 29.82 in 10.0 mi Calm Calm - 0.00 in Rain Light Rain
3:06 PM 64.4 °F 57.2 °F 77% 29.82 in 10.0 mi Calm Calm - 0.01 in Rain Light Rain
3:20 PM 64.4 °F 57.2 °F 77% 29.82 in 10.0 mi Calm Calm - 0.01 in   Overcast
3:30 PM 64.4 °F 57.2 °F 77% 29.82 in 10.0 mi Calm Calm - 0.01 in   Overcast
3:43 PM 64.4 °F 57.2 °F 77% 29.83 in 3.0 mi ENE 5.8 mph - 0.04 in Rain Heavy Rain
3:50 PM 62.6 °F 57.2 °F 82% 29.83 in 3.0 mi NNE 4.6 mph - 0.05 in Rain , Thunderstorm Light Thunderstorms and Rain
3:52 PM 62.1 °F 57.0 °F 84% 29.83 in 5.0 mi North 3.5 mph - 0.05 in Rain , Thunderstorm Light Thunderstorms and Rain
3:59 PM 62.6 °F 57.2 °F 82% 29.83 in 10.0 mi Calm Calm - 0.00 in Rain , Thunderstorm Light Thunderstorms and Rain
4:37 PM 60.8 °F 57.2 °F 88% 29.84 in 10.0 mi SW 6.9 mph - 0.01 in Thunderstorm Thunderstorm
4:52 PM 59.0 °F 57.0 °F 93% 29.84 in 10.0 mi West 3.5 mph - 0.01 in Thunderstorm Thunderstorm
5:16 PM 60.8 °F 57.2 °F 88% 29.84 in 10.0 mi Calm Calm - N/A   Clear
5:52 PM 60.1 °F 57.0 °F 90% 29.85 in 10.0 mi Calm Calm - N/A   Scattered Clouds
6:52 PM 59.0 °F 55.0 °F 87% 29.86 in 10.0 mi Calm Calm - N/A   Scattered Clouds
7:52 PM 57.9 °F 55.0 °F 90% 29.87 in 10.0 mi Calm Calm - N/A   Overcast
8:52 PM 57.0 °F 55.0 °F 93% 29.89 in 10.0 mi Calm Calm - N/A   Mostly Cloudy
9:52 PM 57.9 °F 55.9 °F 93% 29.89 in 10.0 mi Calm Calm - N/A   Overcast
10:02 PM 57.2 °F 55.4 °F 94% 29.89 in 10.0 mi Calm Calm - N/A   Overcast
10:12 PM 57.2 °F 55.4 °F 94% 29.89 in 10.0 mi Calm Calm - N/A   Overcast
10:52 PM 55.9 °F 55.0 °F 97% 29.90 in 10.0 mi Calm Calm - N/A   Overcast
11:52 PM 55.9 °F 54.0 °F 93% 29.90 in 10.0 mi Calm Calm - N/A   Overcast